Hourly Weather Roundup
Issued by NWS Central Illinois

Home | Current Version | Previous Version | Text Only | Print | Product List | Glossary On
Versions: 1 2 3 4 5 6 7 8 9 10 11 12 13 14 15 16 17 18 19 20 21 22 23 24 25 26 27 28 29 30 31 32 33 34 35 36 37 38 39 40 41 42 43 44 45 46 47 48 49 50
000
NZUS43 KILX 051010
HWRILX

AREA WEATHER ROUNDUP
NATIONAL WEATHER SERVICE, LINCOLN IL
400 AM CST THU MAR 05 2015


CITY           SKY/WX    TMP DP  RH WIND       PRES   REMARKS
BLOOMINGTON    MOCLDY    10   1  67 N13       30.38R WCI  -5
CHAMPAIGN      PTCLDY     8  -1  66 N13       30.35F WCI  -8
DECATUR        PTCLDY     9   0  67 N12       30.37F WCI  -6
EFFINGHAM      PTCLDY    15   0  52 N10G17    30.39S WCI   2
FLORA          CLOUDY    18   8  64 N13       30.37F WCI   4
GALESBURG      CLEAR      5  -1  74 NW5       30.41S WCI  -4
JACKSONVILLE   CLOUDY    15   5  64 N8        30.41S WCI   4
LACON          MOCLDY     7  -1  70 NW3       30.41S
LAWRENCEVILLE  CLOUDY    19   9  65 N13       30.35R WCI   6
LITCHFIELD     CLEAR     12   2  64 N5        30.40R WCI   4
$$


CITY           SKY/WX    TMP DP  RH WIND       PRES   REMARKS
LINCOLN        MOCLDY    14   3  61 N10       30.43R WCI   1
MACOMB         PTCLDY     9   3  76 N7        30.45R WCI  -2
MATTOON        FAIR      11   2  67 N13       30.35S WCI  -4
MT CARMEL AP   CLOUDY    21   5  49 N12       30.35F WCI   9
OLNEY-NOBLE AP CLOUDY    18   7  62 N9        30.36S WCI   6
PARIS          MOCLDY    13   4  68 NW6       30.36R WCI   4
PEORIA         MOCLDY    11  -1  58 N8        30.42R WCI  -1
PONTIAC        MOCLDY     9   2  75 NW7       30.41R WCI  -3
RANTOUL        PTCLDY     7   0  73 NW8       30.37R WCI  -6
ROBINSON       CLOUDY    17   9  70 N12       30.37S WCI   4
SPRINGFIELD    MOCLDY    13   2  61 N7        30.41S WCI   3
TAYLORVILLE    CLEAR     10   1  67 N12       30.39F WCI  -4
$$

...REGIONAL REPORTS...


CITY           SKY/WX    TMP DP  RH WIND       PRES   REMARKS
CHICAGO O`HARE CLOUDY     8  -6  52 N9        30.36R WCI  -5
KANKAKEE       PTCLDY     6  -1  74 W6        30.38R WCI  -4
MOLINE         CLEAR      5  -5  63 NW8       30.43S WCI  -8
MOUNT VERNON   CLOUDY    19   1  45 N9        30.38R WCI   9
PITTSFIELD     CLOUDY    15   5  66 N5        30.43S WCI   7
QUINCY         MOCLDY    11   4  73 N6        30.42R WCI   1
ROCKFORD       PTCLDY     3  -6  66 N5        30.40R WCI  -6
$$


CITY           SKY/WX    TMP DP  RH WIND       PRES   REMARKS
BURLINGTON     CLEAR      8   0  69 N8        30.44R WCI  -4
CEDAR RAPIDS   CLEAR     -4 -10  75 NW7       30.43R WCI -18
DES MOINES     PTCLDY     5  -5  63 N9        30.47F WCI  -9
KIRKSVILLE     NOT AVBL
OTTUMWA        PTCLDY     4  -5  66 N10       30.45F WCI -11
ST LOUIS       CLOUDY    21   4  47 N6        30.43R WCI  13
$$


CITY           SKY/WX    TMP DP  RH WIND       PRES   REMARKS
TERRE HAUTE    CLOUDY    16   3  56 N7        30.36R WCI   6
EVANSVILLE     CLOUDY    20   6  55 N12       30.33R WCI   8
INDIANAPOLIS   CLOUDY    17   6  62 N12       30.31R WCI   4
LAFAYETTE      PTCLDY     9   0  67 CALM      30.35R
MADISON        CLEAR      0 -10  63 NW5       30.38R WCI -10
MILWAUKEE      PTCLDY     6 -10  47 N7        30.36S WCI  -6
$$




USA.gov is the U.S. government's official web portal to all federal, state and local government web resources and services.